Regional Weather Roundup
Issued by NWS Boston, MA

Home | Current Version | Previous Version | Text Only | Print | Product List | Glossary On
Versions: 1 2 3 4 5 6 7 8 9 10 11 12 13 14 15 16 17 18 19 20 21 22 23 24 25 26 27 28 29 30 31 32 33 34 35 36 37 38 39 40 41 42 43 44 45 46 47 48 49 50
181
ASUS41 KBOX 160410
RWRBOX

REGIONAL WEATHER ROUNDUP
NATIONAL WEATHER SERVICE BOSTON/NORTON MA
1100 PM EST SAT DEC 15 2018

NOTE:  "FAIR" INDICATES FEW OR NO CLOUDS BELOW 12,000 FEET WITH NO
SIGNIFICANT WEATHER AND/OR OBSTRUCTIONS TO VISIBILITY.

MAZALL-160500-
EASTERN MASSACHUSETTS

CITY           SKY/WX    TMP DP  RH WIND       PRES   REMARKS
BOSTON         CLOUDY    41  32  70 NE7       30.26R
BEVERLY        FAIR      40  29  64 N8        30.24F
LAWRENCE       FAIR      38  26  62 N8        30.27F
BEDFORD        FAIR      38  26  62 N5        30.25S
BLUE HILL        N/A     38  31  76 NE13G20   30.21S WCI  30
NORWOOD        FAIR      43  32  65 N7        30.25S
MARSHFIELD     FAIR      45  36  70 NE13      30.23F
PLYMOUTH       FAIR      43  34  70 NE9       30.22F
TAUNTON        FAIR      41  34  76 N3        30.22S
NEW BEDFORD    FAIR      42  37  82 NE7       30.21S
$$

MAZALL-160500-
CAPE COD AND THE ISLANDS

CITY           SKY/WX    TMP DP  RH WIND       PRES   REMARKS
FALMOUTH       CLEAR     41  34  75 E14       30.21F
HYANNIS        FAIR      43  34  70 NE9       30.20S
CHATHAM        FAIR      44  34  67 NE12      30.21S
PROVINCETOWN   FAIR      44  34  67 NE16      30.23S
NANTUCKET      FAIR      44  37  76 NE17      30.18S
MARTHAS VNYRD  FAIR      42  36  79 NE13      30.19F
$$

MAZALL-160500-
CENTRAL AND WESTERN MASSACHUSETTS

CITY           SKY/WX    TMP DP  RH WIND       PRES   REMARKS
WORCESTER      FAIR      36  27  69 VRB5      30.22R
FITCHBURG      FAIR      33  27  78 W5        30.26F WCI  29
ORANGE         FAIR      34  27  75 NW5       30.25F WCI  30
SPRINGFIELD    CLOUDY    37  27  67 N6        30.23R
WESTFIELD      FAIR      39  28  64 N10       30.23R
NORTH ADAMS    FAIR      36  28  73 E7        30.21F WCI  30
PITTSFIELD     FAIR      35  25  66 NE5       30.19R WCI  31
$$

RIZALL-160500-
RHODE ISLAND

CITY           SKY/WX    TMP DP  RH WIND       PRES   REMARKS
PROVIDENCE     CLOUDY    41  35  79 N8        30.23R
NEWPORT        FAIR      42  35  76 NE10      30.20S
BLOCK ISLAND   FAIR      44  37  76 NE18G29   30.18
SMITHFIELD     FAIR      39  33  79 NE10      30.22S
WESTERLY       FAIR      45  38  76 NE7       30.20S
$$

CTZALL-160500-
CONNECTICUT

CITY           SKY/WX    TMP DP  RH WIND       PRES   REMARKS
BRADLEY INTL   CLOUDY    39  31  72 N8        30.23R
HARTFORD       CLOUDY    42  32  67 N9        30.21S
BRIDGEPORT     FAIR      47  35  63 NE18G25   30.11F
DANBURY        FAIR      43  33  68 NE13G21   30.15F
GROTON         FAIR      44  36  73 NE13      30.17F
NEW HAVEN      FAIR      47  35  63 NE13G21   30.15F
CHESTER        FAIR      43  34  70 NE13G22   30.16F
MERIDEN        FAIR      43  33  68 VRB6      30.19S
WILLIMANTIC    FAIR      40  35  83 NE8       30.21S
OXFORD         FAIR      41  34  76 NE14G25   30.14F
$$

MEZ002-015-021-024-NHZ003-005-008-011-012-014-VTZ005-008-160500-
NORTHERN NEW ENGLAND

CITY           SKY/WX    TMP DP  RH WIND       PRES   REMARKS
PORTLAND ME    FAIR      32  24  72 CALM      30.30R
BANGOR ME      FAIR      30  24  78 CALM      30.27R
CONCORD NH     FAIR      24  22  91 CALM      30.29R
MANCHESTER NH  FAIR      32  26  78 NW3       30.25S
NASHUA NH      FAIR      32  28  85 CALM      30.27F
PORTSMOUTH NH  MOCLDY    35  24  65 N5        30.27R WCI  30
JAFFREY NH     FAIR      30  29  96 CALM      30.23F
KEENE NH       FAIR      26  25  96 CALM      30.26F
BURLINGTON VT  FAIR      28  24  85 S3        30.27S
MT. WASHINGTON PTCLDY    27  -6  24 W17         N/A  WCI  14
$$

NYZ052-076-160500-
EASTERN NEW YORK

CITY           SKY/WX    TMP DP  RH WIND       PRES   REMARKS
ALBANY         MOCLDY    36  26  67 N6        30.24F WCI  31
NEW YORK CITY  CLOUDY    47  38  71 NE20      30.10F
$$

ANZALL-160500-
MARINE OBSERVATIONS

STATION/POSITION TIME  TEMP    WIND        PRES    VSBY  WAVE
                       AIR SEA DIR/SP/G                  HT/PER
                 (UTC) (F)     (DEG/KT/KT) (MB)    (MI)  (FT/S)
BOSTON BUOY      0350   45 46   50/ 16/ 19 1023.7R         4/ 5
BUZZARDS BAY     0300   43      40/ 17/ 19 1022.9R
NANTUCKET SOUND  0350   42 40   40/ 14/ 16 1022.8R         2/ 4
MASS BAY-STELLWA 0304   44 44   50/ 16/ 19 1023.3S  1 7/8  6/ 5
ISLE OF SHOALS   0300   42      30/ 18/ 20 1024.1R
S OF BLOCK IS    0343      49                N/A           6/ 6
$$

......................KEY.........................
  SKY/WX - SKY CONDITION/PRESENT WEATHER
  TMP    - TEMPERATURE IN FAHRENHEIT
  DWPT   - DEWPOINT IN FAHRENHEIT
  RH     - RELATIVE HUMIDITY IN PERCENT
  WIND   - DIRECTION AND SPEED IN MPH
  PRES   - MEAN SEA LEVEL PRESSURE IN INCHES OF HG
  WCI    - WIND CHILL INDEX
  VSB    - VISIBILITY IN MILES
  HX     - HEAT INDEX
  TC     - TEMPERATURE IN CELSIUS
  VRB    - VARIABLE WIND DIRECTION
  N/A    - NOT AVAILABLE




USA.gov is the U.S. government's official web portal to all federal, state and local government web resources and services.